H1 CPF 2 NER 2024 8 5 9 218 01 glonass146 H2 2216101 9146 54377 2024 8 5 0 0 0 2024 8 8 23 45 0 900 1 1 0 0 0 1 H9 10 0 60527 0.00000 0 11070942.474 557839.146 22987392.731 10 0 60527 900.00000 0 11606877.688 3308586.270 22482689.608 10 0 60527 1800.00000 0 12320188.927 5927192.401 21541849.304 10 0 60527 2700.00000 0 13178621.536 8352815.450 20182949.306 10 0 60527 3600.00000 0 14140218.379 10532366.011 18432189.595 10 0 60527 4500.00000 0 15155101.647 12422473.517 16323400.049 10 0 60527 5400.00000 0 16167609.054 13991051.834 13897398.252 10 0 60527 6300.00000 0 17118695.602 15218398.919 11201208.745 10 0 60527 7200.00000 0 17948500.323 16097784.275 8287157.758 10 0 60527 8100.00000 0 18598969.810 16635499.247 5211860.244 10 0 60527 9000.00000 0 19016427.284 16850367.788 2035118.539 10 0 60527 9900.00000 0 19153977.611 16772738.164 -1181245.732 10 0 60527 10800.00000 0 18973645.146 16442998.326 -4374603.163 10 0 60527 11700.00000 0 18448152.330 15909678.145 -7482746.921 10 0 60527 12600.00000 0 17562261.974 15227219.578 -10445116.682 10 0 60527 13500.00000 0 16313624.818 14453510.242 -13203990.926 10 0 60527 14400.00000 0 14713094.998 13647286.061 -15705623.023 10 0 60527 15300.00000 0 12784498.925 12865514.264 -17901297.728 10 0 60527 16200.00000 0 10563866.438 12160868.726 -19748286.634 10 0 60527 17100.00000 0 8098156.042 11579405.417 -21210683.417 10 0 60527 18000.00000 0 5443527.550 11158536.924 -22260102.397 10 0 60527 18900.00000 0 2663234.483 10925391.867 -22876227.044 10 0 60527 19800.00000 0 -174775.552 10895628.343 -23047198.237 10 0 60527 20700.00000 0 -3000452.204 11072750.971 -22769835.437 10 0 60527 21600.00000 0 -5744317.494 11447959.527 -22049687.350 10 0 60527 22500.00000 0 -8340113.580 12000534.613 -20900911.998 10 0 60527 23400.00000 0 -10727313.556 12698743.014 -19345989.387 10 0 60527 24300.00000 0 -12853391.744 13501223.616 -17415273.195 10 0 60527 25200.00000 0 -14675760.314 14358794.570 -15146390.796 10 0 60527 26100.00000 0 -16163293.145 15216604.862 -12583503.898 10 0 60527 27000.00000 0 -17297375.323 16016539.116 -9776444.517 10 0 60527 27900.00000 0 -18072436.488 16699774.070 -6779743.394 10 0 60527 28800.00000 0 -18495947.853 17209378.902 -3651569.924 10 0 60527 29700.00000 0 -18587885.043 17492850.041 -452604.270 10 0 60527 30600.00000 0 -18379681.101 17504473.910 2755136.489 10 0 60527 31500.00000 0 -17912715.132 17207418.482 5909495.508 10 0 60527 32400.00000 0 -17236401.200 16575465.935 8949373.719 10 0 60527 33300.00000 0 -16405958.464 15594313.796 11815905.011 10 0 60527 34200.00000 0 -15479956.569 14262389.922 14453586.877 10 0 60527 35100.00000 0 -14517739.297 12591146.896 16811345.420 10 0 60527 36000.00000 0 -13576834.225 10604822.876 18843514.993 10 0 60527 36900.00000 0 -12710456.513 8339677.931 20510714.456 10 0 60527 37800.00000 0 -11965210.787 5842736.365 21780603.982 10 0 60527 38700.00000 0 -11379086.791 3170085.742 22628508.604 10 0 60527 39600.00000 0 -10979832.319 384801.483 23037896.938 10 0 60527 40500.00000 0 -10783771.361 -2445418.765 23000706.082 10 0 60527 41400.00000 0 -10795117.137 -5250814.811 22517506.265 10 0 60527 42300.00000 0 -11005809.310 -7962213.247 21597501.527 10 0 60527 43200.00000 0 -11395883.058 -10513658.053 20258365.505 10 0 60527 44100.00000 0 -11934355.652 -12844914.481 18525914.292 10 0 60527 45000.00000 0 -12580594.522 -14903742.864 16433621.297 10 0 60527 45900.00000 0 -13286110.513 -16647848.076 14021982.049 10 0 60527 46800.00000 0 -13996701.853 -18046423.347 11337739.843 10 0 60527 47700.00000 0 -14654859.078 -19081223.563 8432986.135 10 0 60527 48600.00000 0 -15202329.670 -19747122.663 5364152.368 10 0 60527 49500.00000 0 -15582733.656 -20052131.263 2190912.430 10 0 60527 50400.00000 0 -15744118.745 -20016873.369 -1024982.713 10 0 60527 51300.00000 0 -15641345.558 -19673544.130 -4220914.960 10 0 60527 52200.00000 0 -15238200.344 -19064392.770 -7334629.080 10 0 60527 53100.00000 0 -14509143.926 -18239795.334 -10305457.503 10 0 60527 54000.00000 0 -13440621.039 -17255999.544 -13075514.672 10 0 60527 54900.00000 0 -12031872.945 -16172638.235 -15590836.335 10 0 60527 55800.00000 0 -10295217.565 -15050117.690 -17802440.353 10 0 60527 56700.00000 0 -8255784.128 -13946992.472 -19667287.430 10 0 60527 57600.00000 0 -5950712.667 -12917438.634 -21149122.532 10 0 60527 58500.00000 0 -3427851.537 -12008932.710 -22219180.369 10 0 60527 59400.00000 0 -744007.289 -11260234.696 -22856741.430 10 0 60527 60300.00000 0 2037179.897 -10699759.941 -23049528.220 10 0 60527 61200.00000 0 4847646.467 -10344407.965 -22793934.713 10 0 60527 62100.00000 0 7617500.894 -10198896.619 -22095085.404 10 0 60527 63000.00000 0 10277696.294 -10255628.386 -20966723.709 10 0 60527 63900.00000 0 12762669.324 -10495093.097 -19430932.758 10 0 60527 64800.00000 0 15012836.198 -10886788.648 -17517694.793 10 0 60527 65700.00000 0 16976842.911 -11390619.627 -15264298.390 10 0 60527 66600.00000 0 18613477.206 -11958713.723 -12714605.600 10 0 60527 67500.00000 0 19893164.148 -12537578.414 -9918193.659 10 0 60527 68400.00000 0 20798984.696 -13070506.356 -6929388.225 10 0 60527 69300.00000 0 21327176.527 -13500127.607 -3806207.174 10 0 60527 70200.00000 0 21487098.105 -13771000.926 -609235.522 10 0 60527 71100.00000 0 21300659.244 -13832134.935 2599546.722 10 0 60527 72000.00000 0 20801243.559 -13639333.035 5757961.100 10 0 60527 72900.00000 0 20032169.256 -13157263.553 8804828.787 10 0 60527 73800.00000 0 19044753.650 -12361168.142 11681147.424 10 0 60527 74700.00000 0 17896063.071 -11238136.669 14331224.474 10 0 60527 75600.00000 0 16646442.554 -9787894.830 16703745.959 10 0 60527 76500.00000 0 15356928.551 -8023070.955 18752760.755 10 0 60527 77400.00000 0 14086652.468 -5968929.916 20438562.318 10 0 60527 78300.00000 0 12890342.969 -3662583.992 21728451.713 10 0 60527 79200.00000 0 11816030.722 -1151711.905 22597367.959 10 0 60527 80100.00000 0 10903050.852 1507162.517 23028374.053 10 0 60527 81000.00000 0 10180426.063 4250762.597 23012989.538 10 0 60527 81900.00000 0 9665697.746 7011437.210 22551363.058 10 0 60527 82800.00000 0 9364254.018 9719728.586 21652281.041 10 0 60527 83700.00000 0 9269183.196 12307024.677 20333011.467 10 0 60527 84600.00000 0 9361659.492 14708187.357 18618984.547 10 0 60527 85500.00000 0 9611845.616 16864048.130 16543315.068 10 0 60528 0.00000 0 9980275.220 18723667.800 14146174.460 10 0 60528 900.00000 0 10419658.094 20246266.885 11474021.972 10 0 60528 1800.00000 0 10877032.086 21402743.370 8578712.051 10 0 60528 2700.00000 0 11296171.841 22176716.995 5516490.138 10 0 60528 3600.00000 0 11620151.872 22565053.055 2346899.170 10 0 60528 4500.00000 0 11793955.000 22577844.081 -868383.035 10 0 60528 5400.00000 0 11767014.551 22237849.555 -4066752.097 10 0 60528 6300.00000 0 11495581.093 21579417.119 -7185906.663 10 0 60528 7200.00000 0 10944811.670 20646930.971 -10165073.996 10 0 60528 8100.00000 0 10090491.204 19492853.505 -12946206.339 10 0 60528 9000.00000 0 8920311.333 18175443.758 -15475123.413 10 0 60528 9900.00000 0 7434651.012 16756250.017 -17702577.498 10 0 60528 10800.00000 0 5646824.503 15297483.556 -19585219.495 10 0 60528 11700.00000 0 3582785.229 13859385.253 -21086446.526 10 0 60528 12600.00000 0 1280297.214 12497696.868 -22177114.362 10 0 60528 13500.00000 0 -1212391.563 11261343.891 -22836100.985 10 0 60528 14400.00000 0 -3838318.551 10190427.403 -23050710.797 10 0 60528 15300.00000 0 -6533944.793 9314608.919 -22816912.295 10 0 60528 16200.00000 0 -9231572.634 8651955.159 -22139405.470 10 0 60528 17100.00000 0 -11861942.244 8208289.931 -21031518.503 10 0 60528 18000.00000 0 -14356898.925 7977078.818 -19514936.649 10 0 60528 18900.00000 0 -16652020.580 7939849.719 -17619269.368 10 0 60528 19800.00000 0 -18689096.588 8067129.852 -15381464.786 10 0 60528 20700.00000 0 -20418355.727 8319858.099 -12845083.417 10 0 60528 21600.00000 0 -21800351.493 8651211.828 -10059445.671 10 0 60528 22500.00000 0 -22807427.574 9008770.027 -7078669.999 10 0 60528 23400.00000 0 -23424703.823 9336920.728 -3960620.582 10 0 60528 24300.00000 0 -23650543.141 9579410.650 -765785.095 10 0 60528 25200.00000 0 -23496481.335 9681929.276 2443895.720 10 0 60528 26100.00000 0 -22986624.317 9594618.333 5606224.025 10 0 60528 27000.00000 0 -22156539.120 9274400.985 8659943.494 10 0 60528 27900.00000 0 -21051686.069 8687032.779 11545917.798 10 0 60528 28800.00000 0 -19725458.349 7808788.066 14208266.651 10 0 60528 29700.00000 0 -18236911.169 6627710.927 16595438.229 10 0 60528 30600.00000 0 -16648275.367 5144377.692 18661198.051 10 0 60528 31500.00000 0 -15022358.869 3372138.359 20365516.125 10 0 60528 32400.00000 0 -13419943.847 1336825.696 21675336.108 10 0 60528 33300.00000 0 -11897287.327 -924057.418 22565212.407 10 0 60528 34200.00000 0 -10503828.675 -3362640.311 23017803.467 10 0 60528 35100.00000 0 -9280198.789 -5922424.456 23024211.973 10 0 60528 36000.00000 0 -8256613.452 -8540390.835 22584165.296 10 0 60528 36900.00000 0 -7451717.569 -11149389.290 21706032.188 10 0 60528 37800.00000 0 -6871928.532 -13680712.566 20406674.528 10 0 60528 38700.00000 0 -6511306.409 -16066749.635 18711135.815 10 0 60528 39600.00000 0 -6351956.880 -18243609.112 16652171.020 10 0 60528 40500.00000 0 -6364950.619 -20153604.164 14269625.480 10 0 60528 41400.00000 0 -6511721.074 -21747495.456 11609673.413 10 0 60528 42300.00000 0 -6745882.305 -22986398.098 8723929.733 10 0 60528 43200.00000 0 -7015390.384 -23843272.130 5668451.530 10 0 60528 44100.00000 0 -7264956.913 -24303933.220 2502648.255 10 0 60528 45000.00000 0 -7438611.967 -24367540.150 -711878.097 10 0 60528 45900.00000 0 -7482306.941 -24046537.839 -3912539.680 10 0 60528 46800.00000 0 -7346445.581 -23366057.717 -7036991.931 10 0 60528 47700.00000 0 -6988234.275 -22362800.548 -10024359.941 10 0 60528 48600.00000 0 -6373750.138 -21083448.981 -12816436.789 10 0 60528 49500.00000 0 -5479637.453 -19582677.332 -15358829.154 10 0 60528 50400.00000 0 -4294358.953 -17920843.341 -17602026.612 10 0 60528 51300.00000 0 -2818947.518 -16161460.171 -19502372.896 10 0 60528 52200.00000 0 -1067225.366 -14368556.055 -21022919.575 10 0 60528 53100.00000 0 934519.434 -12604033.533 -22134145.338 10 0 60528 54000.00000 0 3148386.120 -10925139.802 -22814527.007 10 0 60528 54900.00000 0 5526208.650 -9382154.481 -23050951.683 10 0 60528 55800.00000 0 8011341.054 -8016391.532 -22838962.647 10 0 60528 56700.00000 0 10540806.156 -6858598.231 -22182835.130 10 0 60528 57600.00000 0 13047717.942 -5927817.057 -21095481.340 10 0 60528 58500.00000 0 15463876.590 -5230756.562 -19598187.464 10 0 60528 59400.00000 0 17722428.178 -4761695.689 -17720188.565 10 0 60528 60300.00000 0 19760478.616 -4502923.523 -15498090.275 10 0 60528 61200.00000 0 21521553.408 -4425693.998 -12975149.106 10 0 60528 62100.00000 0 22957801.526 -4491653.531 -10200425.776 10 0 60528 63000.00000 0 24031852.465 -4654679.894 -7227828.289 10 0 60528 63900.00000 0 24718250.148 -4863053.556 -4115063.599 10 0 60528 64800.00000 0 25004405.068 -5061869.005 -922518.304 10 0 60528 65700.00000 0 24891026.201 -5195583.798 2287909.922 10 0 60528 66600.00000 0 24392015.872 -5210597.467 5454007.572 10 0 60528 67500.00000 0 23533833.079 -5057751.519 8514444.337 10 0 60528 68400.00000 0 22354352.754 -4694645.184 11409953.091 10 0 60528 69300.00000 0 20901269.247 -4087669.488 14084468.557 10 0 60528 70200.00000 0 19230110.962 -3213674.079 16486203.342 10 0 60528 71100.00000 0 17401948.917 -2061196.528 18568641.391 10 0 60528 72000.00000 0 15480894.434 -631202.048 20291430.539 10 0 60528 72900.00000 0 13531489.542 1062698.286 21621157.821 10 0 60528 73800.00000 0 11616097.911 2994561.265 22531993.353 10 0 60528 74700.00000 0 9792403.996 5126945.756 23006190.879 10 0 60528 75600.00000 0 8111123.501 7412234.656 23034435.644 10 0 60528 76500.00000 0 6614019.652 9794391.691 22616032.731 10 0 60528 77400.00000 0 5332307.261 12211082.146 21758931.791 10 0 60528 78300.00000 0 4285510.745 14596071.372 20479586.811 10 0 60528 79200.00000 0 3480823.631 16881803.088 18802652.452 10 0 60528 80100.00000 0 2912996.513 19002051.449 16760521.487 10 0 60528 81000.00000 0 2564758.450 20894537.238 14392710.778 10 0 60528 81900.00000 0 2407754.510 22503399.312 11745106.330 10 0 60528 82800.00000 0 2403960.411 23781417.771 8869080.858 10 0 60528 83700.00000 0 2507514.787 24691895.115 5820500.193 10 0 60528 84600.00000 0 2666891.641 25210115.528 2658637.375 10 0 60528 85500.00000 0 2827320.620 25324319.872 -554984.301 10 0 60529 0.00000 0 2933351.791 25036154.301 -3757795.995 10 0 60529 900.00000 0 2931455.017 24360572.477 -6887413.094 10 0 60529 1800.00000 0 2772542.058 23325195.347 -9882860.557 10 0 60529 2700.00000 0 2414302.922 21969154.705 -12685774.326 10 0 60529 3600.00000 0 1823255.489 20341469.721 -15241549.749 10 0 60529 4500.00000 0 976419.914 18499025.247 -17500415.080 10 0 60529 5400.00000 0 -137454.590 16504237.750 -19418407.953 10 0 60529 6300.00000 0 -1517163.722 14422507.883 -20958235.184 10 0 60529 7200.00000 0 -3148854.453 12319567.533 -22089998.916 10 0 60529 8100.00000 0 -5006372.608 10258833.278 -22791775.111 10 0 60529 9000.00000 0 -7052137.501 8298877.439 -23050033.603 10 0 60529 9900.00000 0 -9238507.103 6491122.498 -22859892.215 10 0 60529 10800.00000 0 -11509576.604 4877854.721 -22225200.854 10 0 60529 11700.00000 0 -13803335.104 3490638.920 -21158454.830 10 0 60529 12600.00000 0 -16054090.267 2349199.138 -19680539.981 10 0 60529 13500.00000 0 -18195059.735 1460810.151 -17820315.340 10 0 60529 14400.00000 0 -20161021.309 820223.121 -15614042.120 10 0 60529 15300.00000 0 -21890911.600 410126.288 -13104670.674 10 0 60529 16200.00000 0 -23330265.215 202119.170 -10340999.721 10 0 60529 17100.00000 0 -24433393.306 158157.354 -7376724.427 10 0 60529 18000.00000 0 -25165211.319 232405.354 -4269392.095 10 0 60529 18900.00000 0 -25502640.557 373418.191 -1079285.825 10 0 60529 19800.00000 0 -25435525.944 526558.748 2131742.193 10 0 60529 20700.00000 0 -24967032.654 636548.385 5301465.203 10 0 60529 21600.00000 0 -24113505.891 650042.968 8368481.299 10 0 60529 22500.00000 0 -22903800.445 518125.683 11273394.930 10 0 60529 23400.00000 0 -21378108.488 198611.655 13959958.125 10 0 60529 24300.00000 0 -19586334.750 -341932.523 16376150.095 10 0 60529 25200.00000 0 -17586086.709 -1126539.305 18475175.190 10 0 60529 26100.00000 0 -15440363.106 -2166630.300 20216360.789 10 0 60529 27000.00000 0 -13215036.257 -3461297.273 21565938.695 10 0 60529 27900.00000 0 -10976231.958 -4997105.173 22497695.740 10 0 60529 28800.00000 0 -8787714.791 -6748426.791 22993481.592 10 0 60529 29700.00000 0 -6708386.385 -8678296.837 23043564.270 10 0 60529 30600.00000 0 -4789999.532 -10739751.861 22646826.413 10 0 60529 31500.00000 0 -3075182.323 -12877602.273 21810798.063 10 0 60529 32400.00000 0 -1595853.866 -15030564.788 20551524.468 10 0 60529 33300.00000 0 -372097.207 -17133668.328 18893270.326 10 0 60529 34200.00000 0 588463.621 -19120834.611 16868064.777 10 0 60529 35100.00000 0 1290756.291 -20927526.827 14515094.528 10 0 60529 36000.00000 0 1751818.499 -22493356.261 11879955.432 10 0 60529 36900.00000 0 1999840.226 -23764537.719 9013775.866 10 0 60529 37800.00000 0 2072730.100 -24696090.332 5972228.079 10 0 60529 38700.00000 0 2016266.406 -25253690.368 2814446.253 10 0 60529 39600.00000 0 1881911.234 -25415096.952 -398127.557 10 0 60529 40500.00000 0 1724381.007 -25171089.328 -3602946.688 10 0 60529 41400.00000 0 1599077.384 -24525874.963 -6737587.960 10 0 60529 42300.00000 0 1559488.846 -23496950.221 -9740979.442 10 0 60529 43200.00000 0 1654674.780 -22114418.819 -12554602.599 10 0 60529 44100.00000 0 1926940.405 -20419796.468 -15123644.050 10 0 60529 45000.00000 0 2409802.807 -18464352.145 -17398073.217 10 0 60529 45900.00000 0 3126335.678 -16307056.188 -19333623.933 10 0 60529 46800.00000 0 4087964.107 -14012222.079 -20892660.271 10 0 60529 47700.00000 0 5293761.291 -11646941.575 -22044909.480 10 0 60529 48600.00000 0 6730277.537 -9278421.298 -22768047.895 10 0 60529 49500.00000 0 8371909.168 -6971332.622 -23048128.871 10 0 60529 50400.00000 0 10181791.971 -4785285.682 -22879845.101 10 0 60529 51300.00000 0 12113181.692 -2772532.615 -22266621.055 10 0 60529 52200.00000 0 14111263.595 -975994.986 -21220534.624 10 0 60529 53100.00000 0 16115315.158 572303.581 -19762070.373 10 0 60529 54000.00000 0 18061131.287 1852335.904 -17919709.995 10 0 60529 54900.00000 0 19883610.623 2856657.104 -15729368.576 10 0 60529 55800.00000 0 21519394.883 3590455.564 -13233688.215 10 0 60529 56700.00000 0 22909451.142 4071069.218 -10481203.122 10 0 60529 57600.00000 0 24001489.506 4326989.733 -7525392.749 10 0 60529 58500.00000 0 24752115.600 4396398.404 -4423641.547 10 0 60529 59400.00000 0 25128628.522 4325297.091 -1236125.681 10 0 60529 60300.00000 0 25110389.778 4165314.196 1975351.712 10 0 60529 61200.00000 0 24689706.690 3971279.050 5148554.180 10 0 60529 62100.00000 0 23872194.000 3798667.475 8222011.656 10 0 60529 63000.00000 0 22676599.114 3701026.388 11136203.359 10 0 60529 63900.00000 0 21134098.593 3727485.956 13834701.494 10 0 60529 64800.00000 0 19287095.371 3920463.871 16265254.374 10 0 60529 65700.00000 0 17187566.566 4313658.220 18380788.831 10 0 60529 66600.00000 0 14895030.212 4930413.262 20140313.439 10 0 60529 67500.00000 0 12474214.643 5782526.972 21509705.985 10 0 60529 68400.00000 0 9992526.341 6869550.944 22462370.798 10 0 60529 69300.00000 0 7517420.203 8178612.951 22979753.788 10 0 60529 70200.00000 0 5113780.082 9684770.995 23051705.608 10 0 60529 71100.00000 0 2841417.087 11351885.784 22676685.834 10 0 60529 72000.00000 0 752788.403 13133977.169 21861803.790 10 0 60529 72900.00000 0 -1108969.460 14977009.974 20622694.421 10 0 60529 73800.00000 0 -2711611.844 16821036.612 18983230.437 10 0 60529 74700.00000 0 -4034896.340 18602608.692 16975074.965 10 0 60529 75600.00000 0 -5071186.214 20257358.096 14637081.870 10 0 60529 76500.00000 0 -5825521.475 21722640.257 12014553.949 10 0 60529 77400.00000 0 -6315154.443 22940129.080 9158372.203 10 0 60529 78300.00000 0 -6568569.202 23858254.197 6124012.195 10 0 60529 79200.00000 0 -6624026.241 24434377.301 2970466.155 10 0 60529 80100.00000 0 -6527693.994 24636614.677 -240908.149 10 0 60529 81000.00000 0 -6331446.842 24445227.752 -3447588.872 10 0 60529 81900.00000 0 -6090423.744 23853521.496 -6587117.596 10 0 60529 82800.00000 0 -5860452.157 22868211.453 -9598327.720 10 0 60529 83700.00000 0 -5695447.959 21509242.820 -12422548.458 10 0 60529 84600.00000 0 -5644903.170 19809068.435 -15004759.598 10 0 60529 85500.00000 0 -5751569.591 17811415.772 -17294673.289 10 0 60530 0.00000 0 -6049437.873 15569595.017 -19247720.628 10 0 60530 900.00000 0 -6562099.012 13144418.386 -20825924.209 10 0 60530 1800.00000 0 -7301558.037 10601821.491 -21998636.813 10 0 60530 2700.00000 0 -8267551.119 8010282.917 -22743135.481 10 0 60530 3600.00000 0 -9447394.885 5438153.215 -23045057.145 10 0 60530 4500.00000 0 -10816374.452 2951003.911 -22898669.123 10 0 60530 5400.00000 0 -12338653.693 609107.056 -22306969.874 10 0 60530 6300.00000 0 -13968669.260 -1534850.239 -21281618.945 10 0 60530 7200.00000 0 -15652949.509 -3437722.131 -19842698.342 10 0 60530 8100.00000 0 -17332281.786 -5067451.206 -18018310.777 10 0 60530 9000.00000 0 -18944137.009 -6404143.905 -15844023.261 10 0 60530 9900.00000 0 -20425249.849 -7440631.459 -13362167.424 10 0 60530 10800.00000 0 -21714246.442 -8182495.243 -10621010.583 10 0 60530 11700.00000 0 -22754209.761 -8647557.858 -7673813.958 10 0 60530 12600.00000 0 -23495075.449 -8864863.469 -4577796.565 10 0 60530 13500.00000 0 -23895758.199 -8873192.223 -1393025.017 10 0 60530 14400.00000 0 -23925920.112 -8719172.813 1818749.229 10 0 60530 15300.00000 0 -23567307.474 -8455073.859 4995282.656 10 0 60530 16200.00000 0 -22814600.495 -8136367.900 8075039.651 10 0 60530 17100.00000 0 -21675740.807 -7819171.050 10998376.763 10 0 60530 18000.00000 0 -20171723.244 -7557666.187 13708688.840 10 0 60530 18900.00000 0 -18335860.508 -7401618.065 16153495.591 10 0 60530 19800.00000 0 -16212551.076 -7394084.573 18285448.394 10 0 60530 20700.00000 0 -13855600.991 -7569420.142 20063238.759 10 0 60530 21600.00000 0 -11326168.435 -7951655.040 21452391.821 10 0 60530 22500.00000 0 -8690415.250 -8553318.715 22425930.346 10 0 60530 23400.00000 0 -6016961.560 -9374757.060 22964897.001 10 0 60530 24300.00000 0 -3374247.604 -10403973.104 23058725.154 10 0 60530 25200.00000 0 -827910.729 -11616999.130 22705450.999 10 0 60530 26100.00000 0 1561714.947 -12978786.301 21911762.471 10 0 60530 27000.00000 0 3741873.545 -14444576.404 20692883.211 10 0 60530 27900.00000 0 5669343.420 -15961700.241 19072292.670 10 0 60530 28800.00000 0 7311993.236 -17471729.103 17081286.406 10 0 60530 29700.00000 0 8649873.484 -18912890.679 14758383.629 10 0 60530 30600.00000 0 9675797.842 -20222649.067 12148592.023 10 0 60530 31500.00000 0 10395389.856 -21340341.023 9302542.910 10 0 60530 32400.00000 0 10826592.821 -22209757.503 6275512.667 10 0 60530 33300.00000 0 10998663.385 -22781561.149 3126348.902 10 0 60530 34200.00000 0 10950691.436 -23015436.719 -83677.666 10 0 60530 35100.00000 0 10729709.186 -22881882.274 -3292072.810 10 0 60530 36000.00000 0 10388470.153 -22363563.921 -6436345.651 10 0 60530 36900.00000 0 9982993.163 -21456175.298 -9455237.635 10 0 60530 37800.00000 0 9569976.711 -20168764.089 -12289928.322 10 0 60530 38700.00000 0 9204194.743 -18523510.637 -14885193.137 10 0 60530 39600.00000 0 8935985.707 -16554967.229 -17190489.229 10 0 60530 40500.00000 0 8808942.642 -14308789.654 -19160947.315 10 0 60530 41400.00000 0 8857903.243 -11840014.283 -20758249.548 10 0 60530 42300.00000 0 9107325.794 -9210953.156 -21951376.023 10 0 60530 43200.00000 0 9570120.130 -6488795.565 -22717205.492 10 0 60530 44100.00000 0 10246983.145 -3743016.689 -23040959.054 10 0 60530 45000.00000 0 11126266.756 -1042701.689 -22916478.828 10 0 60530 45900.00000 0 12184383.541 1546103.266 -22346337.035 10 0 60530 46800.00000 0 13386732.510 3962903.153 -21341774.270 10 0 60530 47700.00000 0 14689105.497 6155025.602 -19922469.016 10 0 60530 48600.00000 0 16039514.555 8079558.473 -18116143.697 10 0 60530 49500.00000 0 17380363.134 9704874.422 -15958015.600 10 0 60530 50400.00000 0 18650869.508 11011680.848 -13490103.898 10 0 60530 51300.00000 0 19789640.523 11993553.590 -10760406.676 10 0 60530 52200.00000 0 20737287.599 12656934.390 -7821964.261 10 0 60530 53100.00000 0 21438975.231 13020594.458 -4731827.276 10 0 60530 54000.00000 0 21846795.327 13114588.776 -1549949.605 10 0 60530 54900.00000 0 21921868.023 12978746.854 1661972.284 10 0 60530 55800.00000 0 21636081.238 12660764.838 4841691.146 10 0 60530 56700.00000 0 20973396.360 12213980.293 7927609.072 10 0 60530 57600.00000 0 19930665.611 11694923.896 10859963.013 10 0 60530 58500.00000 0 18517926.927 11160751.320 13581973.277 10 0 60530 59400.00000 0 16758163.887 10666663.273 16040933.482 10 0 60530 60300.00000 0 14686540.216 10263421.849 18189221.716 10 0 60530 61200.00000 0 12349140.050 9995067.174 19985214.234 10 0 60530 62100.00000 0 9801265.289 9896929.838 21394084.947 10 0 60530 63000.00000 0 7105359.496 9994022.289 22388476.084 10 0 60530 63900.00000 0 4328642.984 10299876.704 22949027.664 10 0 60530 64800.00000 0 1540555.562 10815878.456 23064755.911 10 0 60530 65700.00000 0 -1189888.709 11531123.889 22733273.289 10 0 60530 66600.00000 0 -3796726.584 12422809.564 21960845.478 10 0 60530 67500.00000 0 -6219542.968 13457138.115 20762283.431 10 0 60530 68400.00000 0 -8405737.880 14590704.429 19160671.454 10 0 60530 69300.00000 0 -10312469.464 15772305.652 17186935.214 10 0 60530 70200.00000 0 -11908192.477 16945100.554 14879256.574 10 0 60530 71100.00000 0 -13173728.120 18049028.690 12282345.143 10 0 60530 72000.00000 0 -14102820.288 19023388.255 9446579.456 10 0 60530 72900.00000 0 -14702154.649 19809464.239 6427033.527 10 0 60530 73800.00000 0 -14990839.554 20353095.617 3282407.191 10 0 60530 74700.00000 0 -14999370.538 20607072.258 73881.055 10 0 60530 75600.00000 0 -14768122.280 20533258.965 -3136081.213 10 0 60530 76500.00000 0 -14345432.265 20104355.204 -6284959.042 10 0 60530 77400.00000 0 -13785358.023 19305214.437 -9311404.483 10 0 60530 78300.00000 0 -13145204.019 18133665.621 -12156449.758 10 0 60530 79200.00000 0 -12482924.254 16600800.720 -14764667.938 10 0 60530 80100.00000 0 -11854511.960 14730714.957 -17085262.871 10 0 60530 81000.00000 0 -11311488.234 12559709.956 -19073066.090 10 0 60530 81900.00000 0 -10898596.999 10134992.826 -20689420.679 10 0 60530 82800.00000 0 -10651804.607 7512925.687 -21902934.538 10 0 60530 83700.00000 0 -10596689.030 4756899.054 -22690088.506 10 0 60530 84600.00000 0 -10747286.744 1934918.175 -23035687.908 10 0 60530 85500.00000 0 -11105445.649 -882996.749 -22933149.413 99